Regional Weather Roundup
Issued by NWS Jackson, KY

Home | Current Version | Previous Version | Graphics & Text | Print | Product List | Glossary On
Versions: 1 2 3 4 5 6 7 8 9 10 11 12 13 14 15 16 17 18 19 20 21 22 23 24 25 26 27 28 29 30 31 32 33 34 35 36 37 38 39 40 41 42 43 44 45 46 47 48 49 50
000
ASUS43 KJKL 220310
RWRJKL

EAST KENTUCKY HOURLY WEATHER ROUNDUP
NATIONAL WEATHER SERVICE JACKSON KY
1100 PM EDT THU AUG 21 2014

NOTE: "FAIR" INDICATES FEW OR NO CLOUDS BELOW 12,000 FEET WITH
NO SIGNIFICANT WEATHER AND/OR OBSTRUCTIONS TO VISIBILITY.

* THESE REPORTS ARE NOT UNDER NWS QUALITY CONTROL AND MAY NOT
  REPORT WEATHER SUCH AS PRECIPITATION AND FOG.

KYZ079-080-083-085-087-088-110-112-115-119-120-220400
...EASTERN KENTUCKY...

CITY           SKY/WX    TMP DP  RH WIND       PRES   REMARKS
JACKSON        CLOUDY    71  68  90 CALM      30.10R
LONDON         PTCLDY    78  71  79 S3        30.10S
SOMERSET*      PTCLDY    77  73  88 CALM      30.10R
MONTICELLO*    CLEAR     75  73  93 CALM      30.11R
WILLIAMSBURG*  CLEAR     73  73 100 S3        30.10S
MIDDLESBORO*   PTCLDY    73  71  93 CALM      30.12S
HARLAN APT*    PTCLDY    70  70 100 MISG      30.14S
BLACK MTN*       N/A     68  68 100 SW6         N/A
PIKEVILLE APT* PTCLDY    68  68 100 S3        30.11S
BIG SANDY*     PTCLDY    71  69  95 S3        30.09S
MOREHEAD APT*  PTCLDY    73  72  94 CALM      30.08S
$$

KYZ035-036-041-042-044-050-067-078-099-220400
...CENTRAL KENTUCKY...

CITY           SKY/WX    TMP DP  RH WIND       PRES   REMARKS
MT STERLING*   MOCLDY    73  72  94 SW5       30.08R
FLEMING/MASON* CLEAR     73  72  94 S6        30.07R
DANVILLE*      CLEAR     75  72  88 S3        30.08S
RICHMOND*      CLEAR     77  72  83 S6        30.06F
LEXINGTON      CLEAR     79  71  76 S7        30.05S
FRANKFORT      CLEAR     76  71  85 SW5       30.03R
$$

KYZ091>093-OHZ055-061-077-WVZ005-015-034-035-042-220400
...SOUTHERN OHIO/WEST VIRGINIA...

CITY           SKY/WX    TMP DP  RH WIND       PRES   REMARKS
COVINGTON      CLOUDY    76  72  87 S5        30.03R
COLUMBUS       CLOUDY    73  69  87 SE5       30.02S
DAYTON         TSTM      76  72  87 S5        30.04R
WILMINGTON     MOCLDY    72  70  93 S5        30.04R FOG
HUNTINGTON     PTCLDY    70  69  97 SW3       30.06S
CHARLESTON     CLOUDY    71  71 100 CALM      30.07S FOG
PINEVILLE*     FOG       68  68 100 MISG      30.19F VSB 3/4
BECKLEY        MOCLDY    67  64  90 SW8       30.17R
BLUEFIELD      PTCLDY    67  63  87 W7        30.19S
$$

VAZ002-007-008-TNZ017-027-036-066-071-220400
...SOUTHWEST VIRGINIA/EAST TENNESSEE...

CITY           SKY/WX    TMP DP  RH WIND       PRES   REMARKS
WISE*          PTCLDY    68  68 100 SW6       30.20S
JONESVILLE*      N/A     72  68  88 CALM      30.16R
ABINGDON*      MOCLDY    69  69  99 CALM      30.17R
BRISTOL        MOCLDY    74  71  91 CALM      30.14R
KNOXVILLE      MOCLDY    79  71  76 S3        30.10R
OAK RIDGE      CLEAR     78  74  87 CALM      30.12R
CROSSVILLE     CLEAR     73  69  87 CALM      30.17R
NASHVILLE      CLEAR     80  73  79 S3        30.07R
$$

...KEY TO REMARKS...
VSB - VISIBILITY IN MILES
WCI - WIND CHILL INDEX
HX  - HEAT INDEX

$$



USA.gov is the U.S. government's official web portal to all federal, state and local government web resources and services.